Regional Weather Roundup
Issued by NWS

Home | Current Version | Previous Version | Text Only | Print | Product List | Glossary Off
Versions: 1 2 3 4 5 6 7 8 9 10 11 12 13 14 15 16 17 18 19 20 21 22 23 24 25 26 27 28 29 30 31 32 33 34 35 36 37 38 39 40 41 42 43 44 45 46 47 48 49 50

331
ASUS45 KCYS 250710
RWRWY

WYOMING REGIONAL WEATHER ROUNDUP
NATIONAL WEATHER SERVICE CHEYENNE WY
100 AM MDT WED APR 25 2018

NOTE:  "FAIR" INDICATES FEW OR NO CLOUDS BELOW 12,000 FEET
WITH NO SIGNIFICANT WEATHER AND/OR OBSTRUCTIONS TO VISIBILITY.

WYZ001-250800-
YELLOWSTONE NATIONAL PARK

CITY           SKY/WX    TMP DP  RH WIND       PRES   REMARKS
LK YELLOWSTONE   N/A     18  14  84 CALM      30.42F
W YELLOWSTONE  NOT AVBL

$$
WYZ002>013-054>058-071-098>099-250800-
NORTHERN WYOMING

CITY           SKY/WX    TMP DP  RH WIND       PRES   REMARKS
JACKSON        FAIR      28  20  71 N6        30.39S WCI  22
CODY           FAIR      37  22  54 S8        30.32F WCI  31
GREYBULL       FAIR      37  32  82 E6        30.35F WCI  32
WORLAND        FAIR      35  27  72 SE8       30.35F WCI  29
SHERIDAN       FAIR      28  24  85 CALM      30.28F
BUFFALO        FAIR      34  16  47 SW8       30.31F WCI  27
GILLETTE       FAIR      32  25  75 S15       30.34F WCI  22
HULETT         FAIR      30  27  86 S7        30.35F WCI  23
NEWCASTLE      FAIR      30  23  74 CALM      30.38F

$$
WYZ014>020-022>026-101>103-250800-
CENTRAL WYOMING

CITY           SKY/WX    TMP DP  RH WIND       PRES   REMARKS
BIG PINEY      FAIR      30  19  63 S5        30.43R WCI  25
PINEDALE       FAIR      28  23  80 CALM      30.44R
DUBOIS         FAIR      28  21  74 W8        30.39F WCI  20
LANDER         FAIR      31  22  69 CALM      30.36F
RIVERTON       FAIR      31  21  66 SW9       30.37F WCI  23
CASPER         FAIR      26  23  88 SW10      30.38F WCI  16
DOUGLAS        FAIR      23  20  88 CALM      30.40F

$$
WYZ021-027>030-104>119-250800-
SOUTHERN WYOMING

CITY           SKY/WX    TMP DP  RH WIND       PRES   REMARKS
EVANSTON       FAIR      36  19  50 E7        30.37F WCI  30
KEMMERER       FAIR      32  19  59 CALM      30.41R
FORT BRIDGER   FAIR      32  19  60 S9        30.42S WCI  24
ROCK SPRINGS   FAIR      30  17  58 SE10      30.41S WCI  21
DIXON          FAIR      27  19  71 NE5       30.44R WCI  21
RAWLINS        FAIR      18  13  80 CALM      30.41F
SARATOGA       FAIR      19  14  79 CALM      30.41S
LARAMIE        FAIR      20  16  84 W3        30.39F
CHEYENNE       FAIR      28  25  88 NW6       30.40F WCI  22
TORRINGTON     FAIR      31  30  96 SE5       30.41F WCI  26
PINE BLUFFS    FAIR      27  25  93 MISG      30.42R

$$




USA.gov is the U.S. government's official web portal to all federal, state and local government web resources and services.